QPF
0.00 0.00 0.00 0.00 0.00 0.00 0.00 0.00 0.01 0.01 0.00 0.00 0.00 0.00 0.00 0.00 0.00 0.00 0.00 0.00 0.00 0.00 0.00 0.00 0.00 0.00 0.00 0.00 0.01 0.01 0.00 0.00 0.00 0.00 0.00 0.00 0.01 0.07
0.00 0.00 0.00 0.00 0.00 0.00 0.00 0.00 0.00 0.01 0.01 0.00 0.00 0.00 0.00 0.00 0.01 0.00 0.00 0.00 0.00 0.00 0.00 0.00 0.00 0.00 0.00 0.00 0.01 0.01 0.00 0.00 0.01 0.01 0.00 0.00 0.02 0.08
0.00 0.00 0.00 0.00 0.00 0.00 0.00 0.00 0.00 0.01 0.01 0.00 0.00 0.01 0.01 0.00 0.00 0.00 0.00 0.00 0.00 0.00 0.00 0.00 0.00 0.00 0.00 0.00 0.00 0.00 0.00 0.00 0.01 0.01 0.01 0.00 0.02 0.02
0.00 0.00 0.00 0.00 0.00 0.00 0.00 0.00 0.00 0.00 0.00 0.00 0.00 0.01 0.00 0.00 0.00 0.00 0.00 0.00 0.00 0.00 0.00 0.00 0.00 0.00 0.00 0.00 0.00 0.00 0.00 0.00 0.00 0.02 0.03 0.03 0.05 0.02
0.00 0.00 0.00 0.00 0.00 0.00 0.00 0.00 0.00 0.00 0.00 0.00 0.00 0.00 0.00 0.00 0.00 0.00 0.00 0.00 0.00 0.00 0.00 0.00 0.00 0.00 0.00 0.00 0.00 0.00 0.00 0.00 0.00 0.01 0.03 0.03 0.03 0.03
0.00 0.00 0.00 0.00 0.00 0.00 0.00 0.00 0.00 0.00 0.00 0.01 0.01 0.01 0.00 0.00 0.00 0.00 0.00 0.00 0.00 0.00 0.00 0.00 0.00 0.00 0.00 0.00 0.00 0.00 0.00 0.00 0.00 0.00 0.00 0.01 0.02 0.01
0.00 0.00 0.00 0.00 0.00 0.00 0.00 0.00 0.00 0.00 0.00 0.00 0.00 0.00 0.00 0.00 0.00 0.00 0.00 0.00 0.00 0.00 0.00 0.00 0.00 0.00 0.00 0.00 0.00 0.00 0.00 0.00 0.00 0.00 0.00 0.00 0.00 0.00
0.00 0.00 0.00 0.00 0.00 0.00 0.00 0.00 0.00 0.00 0.00 0.00 0.00 0.00 0.00 0.00 0.00 0.00 0.00 0.00 0.00 0.00 0.00 0.00 0.00 0.00 0.00 0.00 0.00 0.00 0.00 0.00 0.00 0.00 0.00 0.00 0.00 0.00
0.00 0.00 0.00 0.00 0.00 0.00 0.00 0.00 0.00 0.00 0.00 0.00 0.00 0.00 0.00 0.00 0.00 0.00 0.00 0.00 0.00 0.00 0.00 0.00 0.00 0.00 0.00 0.00 0.00 0.00 0.00 0.00 0.00 0.00 0.00 0.00 0.00 0.00
0.00 0.00 0.00 0.00 0.00 0.00 0.00 0.00 0.00 0.00 0.00 0.00 0.00 0.00 0.00 0.00 0.00 0.00 0.00 0.00 0.00 0.00 0.00 0.00 0.00 0.00 0.00 0.00 0.00 0.00 0.00 0.00 0.00 0.00 0.00 0.00 0.00 0.00
0.00 0.00 0.00 0.00 0.00 0.00 0.00 0.00 0.00 0.00 0.00 0.00 0.00 0.00 0.00 0.00 0.00 0.00 0.00 0.00 0.00 0.00 0.00 0.00 0.00 0.00 0.00 0.00 0.00 0.00 0.00 0.00 0.00 0.00 0.00 0.00 0.00 0.00
0.00 0.00 0.00 0.00 0.00 0.00 0.00 0.00 0.00 0.00 0.00 0.00 0.00 0.00 0.00 0.00 0.00 0.00 0.00 0.00 0.00 0.00 0.00 0.00 0.00 0.00 0.00 0.00 0.00 0.00 0.00 0.00 0.00 0.00 0.00 0.00 0.00 0.00
0.00 0.00 0.00 0.00 0.00 0.00 0.00 0.00 0.00 0.00 0.00 0.00 0.00 0.00 0.00 0.00 0.00 0.00 0.00 0.00 0.00 0.00 0.00 0.00 0.00 0.00 0.00 0.00 0.00 0.00 0.00 0.00 0.00 0.00 0.00 0.00 0.00 0.00
0.00 0.00 0.00 0.00 0.00 0.00 0.00 0.00 0.00 0.00 0.00 0.00 0.00 0.00 0.00 0.00 0.00 0.00 0.00 0.00 0.00 0.00 0.00 0.00 0.00 0.00 0.00 0.00 0.00 0.00 0.00 0.00 0.00 0.00 0.00 0.00 0.00 0.00
0.00 0.00 0.00 0.00 0.00 0.00 0.00 0.00 0.00 0.00 0.00 0.00 0.00 0.00 0.00 0.00 0.00 0.00 0.00 0.00 0.00 0.00 0.00 0.00 0.00 0.00 0.00 0.00 0.00 0.00 0.00 0.00 0.00 0.00 0.00 0.00 0.00 0.00
0.00 0.00 0.00 0.00 0.00 0.00 0.00 0.00 0.00 0.00 0.00 0.00 0.00 0.00 0.00 0.00 0.00 0.00 0.00 0.00 0.00 0.00 0.00 0.00 0.00 0.00 0.00 0.00 0.00 0.00 0.00 0.00 0.00 0.00 0.00 0.00 0.00 0.00
0.00 0.00 0.00 0.00 0.00 0.00 0.00 0.00 0.00 0.00 0.00 0.00 0.00 0.00 0.00 0.00 0.00 0.00 0.00 0.00 0.00 0.00 0.00 0.00 0.00 0.00 0.00 0.00 0.00 0.00 0.00 0.00 0.00 0.00 0.00 0.00 0.00 0.00
0.00 0.00 0.00 0.00 0.00 0.00 0.00 0.00 0.00 0.00 0.00 0.00 0.00 0.00 0.00 0.00 0.00 0.00 0.00 0.00 0.00 0.00 0.00 0.00 0.00 0.00 0.00 0.00 0.00 0.00 0.00 0.00 0.00 0.00 0.00 0.00 0.00 0.00
0.00 0.00 0.00 0.00 0.00 0.00 0.00 0.00 0.00 0.00 0.00 0.00 0.00 0.00 0.00 0.00 0.00 0.00 0.00 0.00 0.00 0.00 0.00 0.00 0.00 0.00 0.00 0.00 0.00 0.00 0.00 0.00 0.00 0.00 0.00 0.00 0.00 0.00
0.00 0.00 0.00 0.00 0.00 0.00 0.00 0.00 0.00 0.00 0.00 0.00 0.00 0.00 0.00 0.00 0.00 0.00 0.00 0.00 0.00 0.00 0.00 0.00 0.00 0.00 0.00 0.00 0.00 0.00 0.00 0.00 0.00 0.00 0.00 0.00 0.00 0.00
0.00 0.00 0.00 0.00 0.00 0.00 0.00 0.00 0.00 0.00 0.00 0.00 0.00 0.00 0.00 0.00 0.00 0.00 0.00 0.00 0.00 0.00 0.00 0.00 0.00 0.00 0.00 0.00 0.00 0.00 0.00 0.00 0.00 0.00 0.00 0.00 0.00 0.00
0.00 0.00 0.00 0.00 0.00 0.00 0.00 0.00 0.00 0.00 0.00 0.00 0.00 0.00 0.00 0.00 0.00 0.00 0.00 0.00 0.00 0.00 0.00 0.00 0.00 0.00 0.00 0.00 0.00 0.00 0.00 0.00 0.00 0.00 0.00 0.00 0.00 0.00
0.00 0.00 0.00 0.00 0.00 0.00 0.00 0.00 0.00 0.00 0.00 0.00 0.00 0.00 0.00 0.00 0.00 0.01 0.00 0.00 0.00 0.00 0.00 0.00 0.01 0.01 0.00 0.00 0.00 0.00 0.00 0.00 0.00 0.00 0.00 0.00 0.00 0.00
MSLP
1020.78 1020.65 1020.68 1020.61 1020.59 1020.56 1020.67 1020.75 1020.84 1020.85 1020.93 1021.65 1022.10 1022.26 1022.30 1022.42 1022.37 1022.59 1022.44 1022.35 1021.93 1021.88 1021.69 1021.63 1021.62 1021.66 1021.67 1021.51 1021.17 1020.69 1020.09 1019.35 1018.59 1017.94 1017.33 1017.29 1017.40 1017.54
1020.83 1020.82 1020.99 1020.73 1020.49 1020.70 1020.84 1020.75 1020.67 1020.80 1020.96 1021.42 1021.95 1022.18 1022.15 1022.22 1022.50 1022.58 1022.64 1022.67 1022.25 1022.17 1022.17 1021.96 1021.91 1021.83 1021.94 1021.99 1021.27 1020.93 1020.61 1019.74 1018.90 1017.92 1016.44 1016.73 1017.03 1017.27
1020.92 1020.75 1020.81 1020.75 1020.73 1020.92 1020.90 1020.72 1020.68 1020.86 1020.88 1021.63 1021.82 1022.24 1022.19 1022.49 1022.59 1022.74 1022.99 1022.81 1022.71 1022.55 1022.51 1022.34 1022.11 1022.10 1022.18 1022.19 1021.66 1021.10 1021.01 1020.20 1019.42 1018.39 1016.83 1016.49 1016.77 1017.02
1020.91 1020.71 1020.75 1020.75 1020.78 1020.85 1020.93 1020.85 1020.80 1020.96 1021.03 1021.41 1021.97 1022.38 1022.43 1022.54 1022.57 1022.90 1022.87 1022.86 1022.92 1022.88 1022.84 1022.69 1022.46 1022.34 1022.61 1022.45 1022.04 1021.39 1021.38 1020.75 1020.18 1019.53 1018.62 1017.58 1017.32 1017.63
1020.94 1020.94 1020.90 1020.91 1020.72 1021.02 1021.04 1020.84 1020.85 1020.91 1020.98 1021.22 1021.89 1022.38 1022.55 1022.84 1023.04 1023.30 1023.34 1023.26 1023.22 1023.11 1023.25 1023.24 1022.98 1022.66 1022.90 1022.81 1022.31 1021.85 1021.75 1021.41 1020.83 1020.51 1020.10 1019.56 1019.29 1018.92
1020.96 1020.94 1020.93 1020.91 1020.86 1020.87 1020.90 1020.99 1020.97 1020.94 1020.94 1021.11 1021.63 1022.18 1022.61 1023.00 1023.08 1023.30 1023.67 1023.67 1023.83 1023.73 1023.57 1023.70 1023.58 1023.39 1023.21 1023.11 1022.63 1022.33 1022.16 1021.98 1021.52 1021.29 1021.11 1020.80 1020.73 1020.54
1020.72 1020.80 1020.92 1020.98 1020.90 1020.96 1021.07 1021.15 1021.23 1021.18 1021.14 1021.36 1021.64 1022.09 1022.61 1022.99 1023.11 1023.37 1023.62 1023.97 1024.30 1024.42 1023.98 1024.15 1024.16 1024.19 1023.91 1023.57 1023.04 1022.73 1022.52 1022.41 1022.13 1021.95 1021.81 1021.69 1021.62 1021.58
1020.63 1020.87 1021.05 1021.11 1021.07 1021.04 1021.08 1021.11 1021.21 1021.40 1021.47 1021.63 1021.83 1022.04 1022.54 1022.90 1023.30 1023.58 1023.82 1024.22 1024.50 1024.54 1024.19 1024.43 1024.55 1024.60 1024.35 1023.95 1023.23 1023.01 1022.83 1022.76 1022.60 1022.46 1022.48 1022.47 1022.42 1022.44
1020.66 1020.89 1021.11 1021.20 1021.35 1021.51 1021.52 1021.64 1021.40 1021.32 1021.42 1021.71 1021.97 1021.94 1022.36 1022.59 1022.98 1023.56 1023.75 1024.11 1024.41 1024.54 1024.33 1024.61 1024.83 1024.78 1024.62 1024.18 1023.46 1023.48 1023.31 1023.10 1022.93 1022.91 1022.91 1022.94 1022.83 1022.81
1020.64 1020.86 1021.10 1021.36 1021.51 1021.69 1021.81 1022.02 1021.95 1021.70 1021.66 1021.76 1022.07 1022.11 1022.21 1022.63 1022.77 1023.08 1023.65 1024.07 1024.45 1024.57 1024.50 1024.73 1024.94 1024.96 1024.87 1024.61 1023.96 1023.88 1023.61 1023.46 1023.32 1023.30 1023.31 1023.39 1023.40 1023.24
1020.62 1020.81 1021.03 1021.38 1021.55 1021.68 1021.85 1022.07 1022.29 1022.21 1021.86 1021.84 1021.98 1022.10 1022.25 1022.58 1022.90 1023.14 1023.98 1024.21 1024.47 1024.55 1024.58 1024.72 1025.12 1025.18 1025.10 1024.99 1024.80 1024.34 1024.15 1024.08 1023.88 1023.84 1023.80 1023.79 1023.89 1023.89
1020.64 1020.82 1020.97 1021.26 1021.38 1021.54 1021.76 1022.02 1022.27 1022.42 1022.43 1022.41 1022.58 1022.81 1022.82 1022.68 1022.85 1023.29 1023.78 1024.33 1024.49 1024.58 1024.57 1024.94 1025.31 1025.39 1025.43 1025.22 1025.21 1025.04 1024.85 1024.52 1024.33 1024.23 1024.25 1024.09 1023.95 1024.25
1020.58 1020.85 1020.76 1020.88 1020.99 1021.17 1021.45 1021.77 1021.99 1022.14 1022.45 1022.76 1022.99 1023.22 1023.36 1023.38 1023.48 1023.70 1023.89 1024.08 1024.38 1024.32 1024.24 1024.72 1025.59 1025.51 1025.60 1025.63 1025.33 1025.22 1025.13 1024.98 1024.88 1024.83 1024.56 1024.27 1024.25 1024.13
1020.20 1020.33 1020.43 1020.54 1020.61 1020.90 1021.11 1021.46 1021.76 1022.21 1022.56 1022.86 1023.09 1023.33 1023.55 1023.68 1023.87 1024.02 1024.08 1024.13 1024.15 1024.17 1024.09 1024.41 1025.09 1025.36 1025.55 1025.77 1025.65 1025.37 1025.11 1025.03 1025.04 1024.97 1024.97 1024.80 1024.54 1024.37
1019.68 1019.90 1020.20 1020.30 1020.49 1020.68 1021.00 1021.28 1021.58 1022.17 1022.55 1022.84 1023.05 1023.19 1023.38 1023.60 1023.92 1024.31 1024.39 1024.38 1024.41 1024.23 1024.38 1024.49 1024.64 1025.06 1025.27 1025.48 1025.53 1025.52 1025.39 1025.05 1025.10 1025.28 1025.11 1025.03 1024.96 1024.79
1019.19 1019.54 1019.90 1020.03 1020.28 1020.53 1020.91 1021.08 1021.44 1021.84 1022.27 1022.60 1022.88 1022.96 1023.26 1023.63 1024.00 1024.24 1024.46 1024.50 1024.59 1024.52 1024.47 1024.50 1024.69 1024.84 1025.11 1025.15 1025.26 1025.30 1025.32 1025.60 1025.09 1025.13 1025.00 1024.85 1024.58 1024.50
1019.00 1019.46 1019.84 1020.03 1020.25 1020.65 1020.92 1021.10 1021.37 1021.63 1021.95 1022.24 1022.60 1022.89 1023.09 1023.41 1023.74 1023.99 1024.27 1024.60 1024.79 1024.81 1024.82 1024.62 1024.52 1024.63 1024.64 1024.68 1024.81 1024.66 1024.73 1025.00 1024.78 1024.90 1024.85 1024.73 1024.34 1024.06
1018.50 1019.02 1019.43 1019.75 1020.01 1020.34 1020.66 1020.89 1021.07 1021.23 1021.57 1021.90 1022.24 1022.56 1022.78 1022.93 1023.19 1023.63 1024.01 1024.53 1024.72 1024.79 1024.83 1024.67 1024.58 1024.54 1024.33 1023.64 1023.64 1024.07 1024.43 1024.55 1024.41 1024.53 1024.59 1024.64 1024.23 1023.68
1017.72 1018.31 1018.82 1019.15 1019.36 1019.70 1020.03 1020.28 1020.49 1020.63 1020.89 1021.29 1021.57 1021.89 1022.25 1022.55 1022.77 1023.28 1023.64 1023.99 1024.22 1024.39 1024.58 1024.61 1024.78 1024.68 1024.74 1024.19 1023.15 1023.16 1024.05 1024.25 1024.28 1024.28 1024.15 1024.06 1023.56 1023.09
1017.03 1017.52 1017.98 1018.34 1018.63 1018.91 1019.27 1019.59 1019.81 1020.08 1020.40 1020.63 1020.93 1021.17 1021.52 1021.91 1022.34 1022.65 1022.94 1023.28 1023.51 1023.71 1024.00 1024.23 1024.28 1024.26 1024.36 1024.11 1023.60 1023.00 1022.91 1023.48 1023.78 1023.97 1023.88 1023.29 1022.67 1021.87
1016.43 1016.68 1017.04 1017.50 1017.81 1018.08 1018.41 1018.73 1018.94 1019.21 1019.49 1019.82 1019.99 1020.34 1020.61 1021.03 1021.35 1021.68 1022.00 1022.36 1022.66 1022.98 1023.18 1023.19 1022.83 1022.89 1023.75 1024.03 1023.87 1023.00 1022.51 1022.32 1022.53 1022.80 1022.94 1023.08 1022.39 1021.49
1015.45 1015.89 1016.16 1016.49 1016.80 1017.15 1017.50 1017.82 1018.13 1018.37 1018.60 1018.89 1019.10 1019.33 1019.69 1020.05 1020.40 1020.71 1021.09 1021.46 1021.72 1021.90 1022.06 1022.22 1022.77 1023.15 1023.56 1023.42 1022.97 1022.48 1021.95 1021.91 1021.75 1021.55 1021.61 1021.86 1021.87 1021.58
1014.52 1015.00 1015.32 1015.57 1015.86 1016.18 1016.54 1016.87 1017.11 1017.31 1017.54 1017.83 1018.12 1018.40 1018.76 1019.12 1019.36 1019.65 1020.07 1020.31 1020.79 1021.12 1021.42 1021.88 1022.27 1022.57 1022.73 1022.62 1022.48 1022.13 1021.69 1021.47 1021.48 1021.42 1020.92 1020.71 1020.40 1020.11
Thickness
5574 5574 5573 5571 5570 5569 5566 5564 5563 5567 5566 5552 5546 5540 5538 5534 5533 5529 5530 5526 5528 5527 5529 5528 5526 5524 5523 5523 5526 5529 5534 5540 5547 5551 5556 5557 5557 5556
5563 5562 5559 5558 5558 5554 5551 5550 5548 5549 5552 5541 5532 5528 5527 5524 5520 5518 5516 5515 5515 5514 5514 5516 5516 5515 5514 5513 5522 5522 5522 5531 5539 5546 5557 5556 5555 5554
5551 5551 5549 5547 5545 5540 5538 5537 5535 5531 5534 5523 5519 5514 5513 5508 5506 5505 5503 5505 5505 5502 5501 5504 5506 5506 5505 5506 5512 5517 5514 5522 5529 5538 5549 5553 5552 5550
5538 5539 5536 5534 5530 5528 5524 5521 5518 5515 5515 5513 5503 5499 5497 5495 5495 5493 5494 5494 5494 5491 5491 5492 5495 5497 5495 5497 5502 5508 5507 5511 5518 5523 5531 5540 5542 5540
5525 5524 5522 5520 5519 5513 5510 5509 5506 5504 5502 5500 5493 5487 5485 5482 5480 5479 5480 5481 5480 5481 5478 5479 5483 5486 5486 5487 5493 5498 5498 5500 5506 5510 5514 5519 5521 5524
5514 5512 5510 5508 5505 5502 5499 5495 5493 5492 5491 5490 5483 5478 5473 5469 5469 5469 5467 5468 5467 5467 5469 5469 5471 5474 5477 5478 5484 5487 5489 5489 5494 5496 5499 5502 5504 5506
5506 5503 5499 5496 5494 5490 5486 5482 5480 5478 5478 5475 5472 5467 5462 5460 5460 5458 5459 5456 5455 5455 5460 5460 5461 5463 5466 5469 5473 5476 5478 5480 5483 5485 5486 5488 5489 5491
5495 5491 5487 5483 5480 5478 5475 5472 5469 5466 5464 5460 5460 5460 5454 5451 5449 5448 5445 5445 5445 5445 5450 5449 5450 5451 5455 5459 5462 5465 5467 5469 5471 5474 5474 5475 5477 5477
5484 5480 5475 5472 5467 5462 5459 5457 5457 5456 5454 5451 5449 5450 5447 5445 5443 5440 5439 5436 5436 5436 5440 5440 5440 5442 5444 5448 5452 5453 5455 5458 5460 5462 5463 5464 5466 5466
5474 5470 5466 5461 5456 5451 5447 5444 5443 5444 5444 5442 5440 5440 5439 5437 5435 5433 5429 5428 5426 5428 5432 5430 5430 5432 5433 5436 5440 5442 5444 5447 5449 5450 5451 5452 5453 5454
5465 5462 5458 5451 5447 5445 5440 5437 5433 5433 5434 5433 5431 5430 5428 5425 5424 5425 5420 5421 5422 5423 5423 5424 5422 5422 5424 5425 5428 5430 5433 5434 5437 5438 5439 5439 5440 5441
5455 5452 5450 5443 5441 5438 5433 5429 5426 5423 5423 5423 5420 5418 5417 5418 5418 5418 5416 5412 5414 5415 5416 5414 5413 5413 5412 5416 5417 5419 5421 5423 5425 5426 5427 5428 5429 5429
5446 5441 5440 5439 5436 5433 5429 5423 5421 5418 5416 5413 5411 5409 5409 5409 5410 5410 5410 5410 5406 5407 5411 5408 5400 5403 5401 5403 5407 5409 5410 5412 5413 5414 5415 5416 5417 5418
5439 5436 5434 5433 5431 5427 5424 5420 5417 5412 5408 5406 5405 5403 5403 5403 5403 5402 5402 5403 5403 5403 5404 5403 5397 5395 5392 5391 5394 5397 5400 5401 5402 5403 5403 5403 5405 5405
5433 5431 5429 5426 5423 5421 5417 5414 5412 5406 5403 5401 5401 5400 5399 5398 5396 5394 5393 5394 5394 5395 5393 5393 5392 5389 5387 5384 5386 5387 5388 5390 5391 5392 5391 5391 5392 5392
5428 5425 5422 5420 5417 5414 5411 5410 5406 5403 5400 5398 5396 5395 5393 5391 5388 5387 5384 5384 5383 5384 5384 5384 5383 5382 5379 5379 5378 5378 5378 5375 5380 5380 5380 5380 5381 5381
5418 5414 5411 5410 5408 5406 5404 5402 5400 5399 5396 5394 5390 5388 5388 5385 5383 5380 5377 5374 5372 5372 5373 5374 5375 5374 5374 5373 5371 5373 5373 5370 5372 5370 5368 5367 5370 5370
5413 5407 5404 5403 5401 5400 5399 5397 5395 5394 5391 5389 5385 5383 5383 5382 5380 5375 5371 5367 5363 5363 5362 5364 5364 5364 5365 5370 5369 5365 5361 5360 5361 5359 5357 5355 5355 5360
5409 5404 5401 5398 5398 5397 5395 5393 5392 5391 5389 5385 5383 5380 5377 5374 5374 5368 5364 5362 5360 5357 5355 5353 5351 5350 5348 5354 5359 5357 5350 5348 5347 5347 5347 5345 5345 5346
5404 5401 5397 5397 5396 5394 5392 5389 5388 5385 5383 5381 5379 5376 5373 5369 5364 5364 5360 5357 5355 5352 5349 5344 5342 5340 5341 5342 5343 5344 5342 5338 5336 5333 5333 5336 5338 5338
5400 5398 5396 5393 5392 5390 5388 5386 5384 5382 5379 5376 5375 5372 5369 5364 5362 5358 5354 5354 5349 5344 5341 5340 5340 5337 5331 5326 5325 5329 5329 5329 5327 5324 5320 5319 5322 5326
5397 5394 5393 5391 5389 5387 5384 5382 5379 5378 5375 5373 5370 5368 5364 5360 5356 5352 5348 5344 5340 5338 5334 5330 5327 5322 5315 5315 5315 5315 5316 5314 5313 5314 5312 5311 5307 5306
5393 5390 5388 5386 5384 5383 5380 5378 5376 5374 5372 5369 5366 5364 5359 5355 5352 5348 5343 5338 5332 5328 5323 5317 5314 5310 5306 5304 5303 5301 5302 5301 5299 5299 5302 5302 5304 5305